Weather History for Riverside, CA

Change the Weather History Date:

Thursday, October 17, 2013

  Actual Average Record
Temperature  
Mean Temperature 69 °F 68 °F  
Max Temperature 85 °F 81 °F 103 °F (1958)
Min Temperature 52 °F 55 °F 37 °F (1946)
Degree Days  
Heating Degree Days 0 1  
Month to date heating degree days 16 7  
Since 1 July heating degree days 16 9  
Cooling Degree Days 4 4  
Month to date cooling degree days 65 96  
Year to date cooling degree days 1927 1688  
Growing Degree Days 18 (Base 50)    
Moisture  
Dew Point 33 °F    
Average Humidity 28    
Maximum Humidity 46    
Minimum Humidity 10    
Precipitation  
Precipitation 0.00 in 0.01 in 0.64 in (1948)
Month to date precipitation 0.30 0.10  
Year to date precipitation 2.67 9.69  
Since 1 July precipitation 0.46 0.50  
Snow  
Snow 0.00 in - - ()
Month to date snowfall 0.0  
Year to date snowfall 0.0  
Since 1 July snowfall 0.0  
Snow Depth 0.00 in    
Sea Level Pressure  
Sea Level Pressure 29.95 in    
Wind  
Wind Speed 5 mph (NNW)    
Max Wind Speed 15 mph    
Max Gust Speed 20 mph    
Visibility 10 miles    
Events      
T = Trace of Precipitation, MM = Missing Value Source: NWS Daily Summary

Daily Weather History Graph

Daily Weather History Graph

Search for Another Location

Airport:

Trip Planner

Search our weather history database for the weather conditions in past years. The results will help you decide how hot, cold, wet, or windy it might be!

Date:

Astronomy

Oct. 17, 2013 Rise Set
Actual Time 6:56 AM PDT 6:12 PM PDT
Civil Twilight 6:31 AM PDT 6:38 PM PDT
Nautical Twilight 6:02 AM PDT 7:07 PM PDT
Astronomical Twilight 5:33 AM PDT 7:36 PM PDT
Moon 5:28 PM PDT (10/17) 5:36 AM PDT (10/17)
Length of Visible Light 12h 06m
Length of Day
11h 16m
Waxing Gibbous, 98% of the Moon is Illuminated
Oct 17
Waxing Gibbous
Oct 18
Full
Oct 26
Last Quarter
Nov 3
New
Nov 9
First Quarter

Hourly Weather History & Observations

Time (PDT) Temp. Dew Point Humidity Pressure Visibility Wind Dir Wind Speed Gust Speed Precip Events Conditions
12:53 AM 60.1 °F 30.9 °F 33% 29.99 in 10.0 mi ENE 4.6 mph - N/A   Clear
1:53 AM 59.0 °F 32.0 °F 36% 29.99 in 10.0 mi ENE 4.6 mph - N/A   Clear
2:53 AM 57.0 °F 33.1 °F 40% 29.99 in 10.0 mi NE 4.6 mph - N/A   Clear
3:53 AM 55.9 °F 30.9 °F 39% 29.98 in 10.0 mi NE 5.8 mph - N/A   Clear
4:53 AM 57.0 °F 30.0 °F 36% 29.99 in 10.0 mi NE 5.8 mph - N/A   Clear
5:53 AM 53.1 °F 34.0 °F 48% 29.99 in 10.0 mi East 3.5 mph - N/A   Clear
6:53 AM 54.0 °F 30.9 °F 41% 30.00 in 10.0 mi NE 3.5 mph - N/A   Clear
7:53 AM 55.0 °F 34.0 °F 45% 30.01 in 10.0 mi Calm Calm - N/A   Clear
8:53 AM 62.1 °F 30.9 °F 31% 30.02 in 10.0 mi Calm Calm - N/A   Clear
9:53 AM 69.1 °F 30.9 °F 24% 30.01 in 10.0 mi Calm Calm - N/A   Clear
10:53 AM 73.9 °F 28.9 °F 19% 29.99 in 10.0 mi WSW 3.5 mph - N/A   Clear
11:53 AM 78.1 °F 24.1 °F 14% 29.97 in 10.0 mi WSW 4.6 mph - N/A   Clear
12:53 PM 81.0 °F 25.0 °F 13% 29.94 in 10.0 mi Variable 5.8 mph - N/A   Clear
1:53 PM 82.9 °F 23.0 °F 11% 29.90 in 10.0 mi Variable 5.8 mph - N/A   Clear
2:53 PM 84.0 °F 21.9 °F 10% 29.89 in 10.0 mi WNW 6.9 mph - N/A   Clear
3:53 PM 82.9 °F 28.9 °F 14% 29.88 in 10.0 mi West 11.5 mph 16.1 mph N/A   Clear
4:53 PM 80.1 °F 37.9 °F 22% 29.88 in 10.0 mi West 11.5 mph - N/A   Clear
5:53 PM 75.9 °F 34.0 °F 22% 29.89 in 10.0 mi WSW 10.4 mph 18.4 mph N/A   Clear
6:53 PM 73.0 °F 36.0 °F 26% 29.91 in 10.0 mi West 6.9 mph - N/A   Clear
7:53 PM 70.0 °F 39.0 °F 32% 29.92 in 10.0 mi Calm Calm - N/A   Clear
8:53 PM 66.9 °F 41.0 °F 39% 29.93 in 10.0 mi Calm Calm - N/A   Clear
9:53 PM 66.0 °F 42.1 °F 42% 29.94 in 10.0 mi Calm Calm - N/A   Clear
10:53 PM 62.1 °F 41.0 °F 46% 29.94 in 10.0 mi Calm Calm - N/A   Clear
11:53 PM 60.1 °F 42.1 °F 51% 29.94 in 10.0 mi Calm Calm - N/A   Clear